Location: Broekland
(52.3610°N, 6.2005°E)
Time: 20:45:11
(UTC+00:00)

Cosmos 1605 Rocket - Pass Details

Date: 19 May 2025
Orbit: 944 x 1005 km, 82.9° (Epoch: 15 June)

Event Time Altitude Azimuth Distance (km) Brightness Sun altitude
Rises 23:23:03 0° 347° (NNW) 3,732 8.7 -17.6°
Reaches altitude 10° 23:25:39 10° 343° (NNW) 2,772 7.6 -17.6°
Maximum altitude 23:31:49 56° 268° (W) 1,163 4.4 -17.7°
Enters shadow 23:35:18 26° 201° (SSW) 1,824 4.9 -17.6°
